sat.trackr.live / text

‹ back to catalog

UNKNOWN

NORAD 82783

UNKNOWN UNKNOWN UNKNOWN

§ Identity

Operator
Country
Launch date
Launch site
Launch vehicle
Mass (kg)
RCS (m²)

External: N2YO · Heavens-Above

§ Orbital elements

Epoch: 2026-05-23T16:05:50.586432Z

Period
109.99 min
Inclination
90.3497°
Eccentricity
0.0026737
Mean motion
13.09234844 rev/d
Perigee alt
1,205.8 km
Apogee alt
1,246.5 km
Semi-major
7,604.3 km
B*
8.1714e-4
RAAN
43.3865°
Arg perigee
36.2162°
Mean anomaly
324.0769°
Rev number
52,554

§ Raw data

UNKNOWN1 82783U          26143.67072438  .00000289  00000+0  81714-3 0  99932 82783  90.3497  43.3865 0026737  36.2162 324.0769 13.09234844525546

JSON: /api/v1/satellites/82783 · /tle

For live sub-satellite position, see the globe view (requires WebGL).

§ Visibility from observer

Set your observer location to see the next 7 days of passes ≥ 10°. The values pass through the URL so the page stays shareable.

No JS? Fill the form by hand. The geolocation button needs JavaScript.